Location: Melbourne
(37.8170°S, 144.9670°E)
Time: 17:23:41
(UTC+11:00)

deb Explorer IX - All Passes

Search period start: 22 October 2014 00:00
Search period end: 01 November 2014 00:00
Orbit: 559 x 1208 km, 38.8° (Epoch: 19 October)

Date Brightness Start Highest point End Pass type
(mag) Time Alt. Az. Time Alt. Az. Time Alt. Az.
22 Oct - 01:29:22 10° W 01:34:34 19° NW 01:39:47 10° N night (unlit)
22 Oct - 16:24:52 10° N 16:28:27 18° NE 16:32:27 10° E daylight
22 Oct - 18:10:27 10° NW 18:16:01 60° NNE 18:22:45 10° ESE daylight
22 Oct - 19:58:20 10° W 20:04:40 84° S 20:12:09 10° E visible
22 Oct - 21:46:44 10° W 21:53:43 85° NNW 22:01:35 10° ENE visible
22 Oct - 23:35:25 10° W 23:42:27 45° NNW 23:49:53 10° NE visible
23 Oct - 01:26:21 10° WNW 01:30:27 15° NW 01:34:35 10° N night (unlit)
23 Oct - 16:20:21 10° NNW 16:24:22 23° NE 16:28:56 10° E daylight
23 Oct - 18:06:33 10° WNW 18:12:05 69° NNE 18:18:49 10° ESE daylight
23 Oct - 19:54:33 10° W 20:00:48 82° S 20:08:13 10° E daylight
23 Oct - 21:42:53 10° WSW 21:49:47 79° NNW 21:57:34 10° ENE visible
23 Oct - 23:31:39 10° W 23:38:23 38° NNW 23:45:31 10° NNE visible
24 Oct - 01:24:07 10° WNW 01:26:16 11° NW 01:28:26 10° NNW night (unlit)
24 Oct - 16:15:58 10° NNW 16:20:14 28° NE 16:25:12 10° E daylight
24 Oct - 18:02:37 10° WNW 18:08:07 77° NNE 18:14:48 10° ESE daylight
24 Oct - 19:50:41 10° W 19:56:52 82° S 20:04:12 10° E daylight
24 Oct - 21:38:59 10° WSW 21:45:45 72° NNW 21:53:27 10° ENE visible
24 Oct - 23:27:54 10° W 23:34:14 32° NNW 23:40:58 10° NNE visible
25 Oct - 16:11:38 10° NNW 16:16:05 34° NNE 16:21:18 10° E daylight
25 Oct - 17:58:40 10° WNW 18:04:06 85° NNE 18:10:42 10° E daylight
25 Oct - 19:46:45 10° W 19:52:51 84° S 20:00:07 10° E daylight
25 Oct - 21:35:01 10° W 21:41:39 64° NNW 21:49:12 10° ENE visible
25 Oct - 23:24:10 10° W 23:29:59 26° NW 23:36:11 10° NNE visible
26 Oct - 16:07:20 10° NW 16:11:53 41° NNE 16:17:16 10° E daylight
26 Oct - 17:54:40 10° W 18:00:01 89° S 18:06:33 10° E daylight
26 Oct - 19:42:45 10° W 19:48:46 87° S 19:55:58 10° E daylight
26 Oct - 21:31:00 10° W 21:37:27 55° NNW 21:44:49 10° NE visible
26 Oct - 23:20:31 10° W 23:25:40 21° NW 23:31:08 10° N visible
27 Oct - 14:18:43 10° NNE 14:20:24 12° NE 14:22:09 10° ENE daylight
27 Oct - 16:03:04 10° NW 16:07:40 49° NNE 16:13:08 10° E daylight
27 Oct - 17:50:36 10° W 17:55:54 85° S 18:02:20 10° E daylight
27 Oct - 19:38:40 10° W 19:44:36 89° N 19:51:42 10° ENE daylight
27 Oct - 21:26:56 10° W 21:33:10 47° NNW 21:40:18 10° NE visible
27 Oct - 23:17:03 10° WNW 23:21:16 17° NW 23:25:43 10° N visible
28 Oct - 14:13:20 10° N 14:15:59 16° NE 14:18:50 10° ENE daylight
28 Oct - 15:58:47 10° WNW 16:03:24 59° NNE 16:08:53 10° E daylight
28 Oct - 17:46:29 10° W 17:51:42 82° S 17:58:03 10° E daylight
28 Oct - 19:34:31 10° W 19:40:21 82° NNW 19:47:22 10° ENE daylight
28 Oct - 21:22:51 10° W 21:28:48 40° NNW 21:35:36 10° NE visible
28 Oct - 23:14:04 10° WNW 23:16:48 12° NW 23:19:37 10° NNW visible
29 Oct - 14:08:21 10° N 14:11:32 20° NE 14:15:01 10° E daylight
29 Oct - 15:54:29 10° WNW 15:59:05 68° NNE 16:04:34 10° E daylight
29 Oct - 17:42:18 10° W 17:47:27 80° S 17:53:41 10° E daylight
29 Oct - 19:30:17 10° W 19:36:01 75° NNW 19:42:54 10° ENE daylight
29 Oct - 21:18:45 10° W 21:24:22 33° NNW 21:30:43 10° NNE visible
30 Oct - 14:03:30 10° NNW 14:07:03 25° NNE 14:10:57 10° E daylight
30 Oct - 15:50:10 10° WNW 15:54:44 78° NNE 16:00:10 10° E daylight
30 Oct - 17:38:02 10° W 17:43:07 81° S 17:49:16 10° E daylight
30 Oct - 19:26:00 10° W 19:31:37 66° NNW 19:38:20 10° ENE daylight
30 Oct - 21:14:41 10° W 21:19:50 27° NNW 21:25:38 10° NNE visible
31 Oct - 13:58:45 10° NNW 14:02:32 31° NNE 14:06:42 10° E daylight
31 Oct - 15:45:48 10° WNW 15:50:20 86° NNE 15:55:41 10° E daylight
31 Oct - 17:33:42 10° W 17:38:43 83° S 17:44:47 10° E daylight
31 Oct - 19:21:40 10° W 19:27:07 57° NNW 19:33:38 10° NE daylight
31 Oct - 21:10:41 10° W 21:15:14 21° NW 21:20:17 10° NNE visible
